CZ-4C DEB, 42671

Orbit data source: Space-Track

CZ-4C DEB, 42671 is space debris in SSO originally from a launch on Thu, 26 Nov 2015 UTC launched from the Taiyaun Space Center, China (TSC). Debris objects in space refer to the collection of defunct objects orbiting the Earth. Examples of debris include non-operational satellites, rocket bodies, and fragments generated from explosions, collisions, or faulty payload assembly.

Loading next visibility...
Identifier
42671, 2015-069D
Orbit
SSO
Country
Flag of CNCN / PRC
Related business
Manufacturer
Unknown
Mission
Spacecraft
Bus & Motor
Unknown
Mass
Unknown
Launch date (UTC)
2015-11-26 (10 years ago)
Launch vehicle
Unknown
Launch site
Taiyaun Space Center, China (TSC)
Object type
Payload
Rocket body
Debris
Shape & HBR
Unknown shape, 0.1 m
Radar Cross Section
Small (<0.1 m²)

Expand to show TLE details & history
Last TLE update: 16 hours ago

TLE from 16 hours ago
0 CZ-4C DEB
1 42671U 15069D   25292.12536643  .00010312  00000-0  13926-2 0  9991
2 42671  97.8120 156.5460 0120318  71.4558 289.9678 14.74287989520938
Epoch: 2025-10-19T03:00Z
TLE epoch observation values (Epoch: 2025-10-19T03:00:31.659Z)
Latitude
-0.00007°
Longitude
83.56758°
Altitude
622.461 km
Speed
7.562 km/s
True Right ascension
10h 26m 11s
True Declination
0° 00' 00"
Sunlit
Object was in daylight at epoch
Visualization orbit readout
Latitude
Unknown
Longitude
Unknown
Altitude
Unknown
Speed
Unknown
Apparent Right ascension
Unknown
Apparent Declination
Unknown
Sunlit
N/A
Visualization observer readout
Local Sidereal Time
13:42:12
Azimuth
Unknown
Elevation
Unknown
Doppler factor
Unknown
Orbital elements
Apogee altitude
728.951 km
Perigee altitude
559.962 km
Semi-major axis
7,022.593 km
Eccentricity
0.01203
Inclination
97.812°
RAAN
156.546°
Arg. of periapsis
71.4558°
True anomaly
288.66536°
Mean anomaly
289.9678°
Eccentric anomaly
289.31724°
Mean motion
3.68805 °/min
Orbital period
97.61 mins
BSTAR
0.0013926
Loading maneuver chart data...
Computing Atmospheric mass density...
Loading historical data...
Loading historical data...
Loading historical data...
Loading historical data...
Loading historical data...
Loading historical data...
Loading historical data...
Other satellites on launch #69 in the year 2015 (2015-11-26 UTC)

Documentation

Showing up to 5 results
|